| time (UTC) | temp F | wind direction | speed knots | gust knots | rain 1hr in | rain 24hr in | rain mn in | humidity % | barometer mb |
| 20260505064018 | 34 | 338 | 1.7 | 4.3 | 0.00 | 0.00 | 0.00 | 68 | 1008.5 |
| 20260505063516 | 34 | 338 | 1.7 | 4.3 | 0.00 | 0.00 | 0.00 | 68 | 1008.5 |
| 20260505063015 | 34 | 339 | 1.7 | 4.3 | 0.00 | 0.00 | 0.00 | 69 | 1008.6 |
| 20260505062515 | 34 | 339 | 1.7 | 4.3 | 0.00 | 0.00 | 0.00 | 69 | 1008.6 |
| 20260505062014 | 34 | 340 | 1.7 | 5.2 | 0.00 | 0.00 | 0.00 | 70 | 1008.5 |
| 20260505061527 | 35 | 340 | 0.9 | 5.2 | 0.00 | 0.00 | 0.00 | 70 | 1008.5 |
| 20260505061014 | 35 | 341 | 1.7 | 7.0 | 0.00 | 0.00 | 0.00 | 70 | 1008.4 |
| 20260505060513 | 35 | 342 | 2.6 | 7.0 | 0.00 | 0.00 | 0.00 | 71 | 1008.6 |
| 20260505060013 | 35 | 342 | 0.9 | 5.2 | 0.00 | 0.00 | 0.00 | 71 | 1008.5 |
| 20260505055512 | 35 | 346 | 0.9 | 4.3 | 0.00 | 0.00 | 0.00 | 71 | 1008.5 |
| 20260505055011 | 35 | 349 | 1.7 | 5.2 | 0.00 | 0.00 | 0.00 | 71 | 1008.4 |
| 20260505054510 | 35 | 350 | 2.6 | 7.0 | 0.00 | 0.00 | 0.00 | 70 | 1008.3 |
| 20260505054012 | 36 | 350 | 2.6 | 7.0 | 0.00 | 0.00 | 0.00 | 70 | 1008.3 |
| 20260505053512 | 36 | 350 | 3.5 | 9.6 | 0.00 | 0.00 | 0.00 | 70 | 1008.3 |
| 20260505053007 | 36 | 345 | 2.6 | 9.6 | 0.00 | 0.00 | 0.00 | 71 | 1008.4 |
| 20260505052508 | 36 | 338 | 4.3 | 8.7 | 0.00 | 0.00 | 0.00 | 71 | 1008.3 |
| 20260505052005 | 36 | 360 | 5.2 | 8.7 | 0.00 | 0.00 | 0.00 | 70 | 1008.3 |
| 20260505051503 | 37 | 348 | 5.2 | 9.6 | 0.00 | 0.00 | 0.00 | 71 | 1008.2 |
| 20260505051003 | 37 | 355 | 3.5 | 9.6 | 0.00 | 0.00 | 0.00 | 71 | 1008.2 |
| 20260505050504 | 37 | 336 | 2.6 | 9.6 | 0.00 | 0.00 | 0.00 | 72 | 1008.2 |
| 20260505041613 | 38 | 34 | 5.2 | 13.9 | 0.00 | 0.00 | 0.00 | 75 | 1007.9 |
| 20260505041054 | 38 | 337 | 6.1 | 13.9 | 0.00 | 0.00 | 0.00 | 75 | 1007.8 |
| 20260505040553 | 39 | 10 | 7.8 | 13.9 | 0.00 | 0.00 | 0.00 | 73 | 1007.8 |
| 20260505040052 | 39 | 33 | 5.2 | 13.0 | 0.00 | 0.00 | 0.00 | 72 | 1007.7 |
| 20260505035552 | 40 | 329 | 7.8 | 13.0 | 0.00 | 0.00 | 0.00 | 71 | 1007.6 |
| 20260505035052 | 40 | 323 | 5.2 | 8.7 | 0.00 | 0.00 | 0.00 | 71 | 1007.6 |
| 20260505034549 | 40 | 309 | 2.6 | 9.6 | 0.00 | 0.00 | 0.00 | 70 | 1007.6 |
| 20260505034052 | 40 | 340 | 5.2 | 10.4 | 0.00 | 0.00 | 0.00 | 70 | 1007.6 |
| 20260505033547 | 40 | 341 | 6.1 | 13.0 | 0.00 | 0.00 | 0.00 | 70 | 1007.5 |
| 20260505033046 | 40 | 323 | 7.0 | 13.0 | 0.00 | 0.00 | 0.00 | 69 | 1007.4 |
| 20260505032550 | 40 | 302 | 7.0 | 11.3 | 0.00 | 0.00 | 0.00 | 69 | 1007.4 |
| 20260505032045 | 40 | 330 | 6.1 | 11.3 | 0.00 | 0.00 | 0.00 | 68 | 1007.3 |
| 20260505031549 | 40 | 343 | 4.3 | 13.0 | 0.00 | 0.00 | 0.00 | 68 | 1007.2 |
| 20260505031048 | 41 | 323 | 5.2 | 13.0 | 0.00 | 0.00 | 0.00 | 67 | 1007.3 |
| 20260505030548 | 41 | 335 | 4.3 | 11.3 | 0.00 | 0.00 | 0.00 | 67 | 1007.2 |
| 20260505030044 | 41 | 323 | 6.1 | 11.3 | 0.00 | 0.00 | 0.00 | 67 | 1007.1 |
| 20260505025543 | 41 | 348 | 6.1 | 13.9 | 0.00 | 0.00 | 0.00 | 66 | 1007.2 |
| 20260505025041 | 41 | 338 | 7.0 | 13.9 | 0.00 | 0.00 | 0.00 | 66 | 1007.1 |
| 20260505024545 | 41 | 317 | 5.2 | 14.8 | 0.00 | 0.00 | 0.00 | 66 | 1007.0 |
| 20260505024039 | 41 | 339 | 8.7 | 14.8 | 0.00 | 0.00 | 0.00 | 66 | 1006.9 |
| 20260505023538 | 41 | 343 | 2.6 | 15.6 | 0.00 | 0.00 | 0.00 | 66 | 1006.9 |
| 20260505023044 | 41 | 360 | 7.0 | 15.6 | 0.00 | 0.00 | 0.00 | 66 | 1006.8 |
| 20260505022536 | 42 | 360 | 7.8 | 13.9 | 0.00 | 0.00 | 0.00 | 65 | 1006.7 |
| 20260505022034 | 42 | 334 | 7.8 | 13.9 | 0.00 | 0.00 | 0.00 | 65 | 1006.4 |
| 20260505021539 | 42 | 302 | 6.1 | 13.9 | 0.00 | 0.00 | 0.00 | 66 | 1006.4 |
| 20260505021032 | 42 | 331 | 6.1 | 10.4 | 0.00 | 0.00 | 0.00 | 65 | 1006.2 |
| 20260505020531 | 42 | 355 | 4.3 | 14.8 | 0.00 | 0.00 | 0.00 | 65 | 1006.1 |
| 20260505020032 | 42 | 304 | 9.6 | 14.8 | 0.00 | 0.00 | 0.00 | 64 | 1006.1 |
| 20260505015530 | 43 | 321 | 7.8 | 13.0 | 0.00 | 0.00 | 0.00 | 64 | 1006.0 |
| 20260505015033 | 43 | 343 | 7.0 | 13.0 | 0.00 | 0.00 | 0.00 | 64 | 1006.0 |
| 20260505014536 | 43 | 349 | 4.3 | 10.4 | 0.00 | 0.00 | 0.00 | 63 | 1005.9 |
| 20260505014026 | 43 | 337 | 5.2 | 11.3 | 0.00 | 0.00 | 0.00 | 62 | 1005.8 |
| 20260505013529 | 44 | 347 | 6.1 | 12.2 | 0.00 | 0.00 | 0.00 | 61 | 1005.7 |
| 20260505013029 | 44 | 19 | 4.3 | 13.9 | 0.00 | 0.00 | 0.00 | 60 | 1005.6 |
| 20260505012525 | 44 | 327 | 8.7 | 13.9 | 0.00 | 0.00 | 0.00 | 59 | 1005.5 |
| 20260505012025 | 44 | 319 | 6.1 | 13.0 | 0.00 | 0.00 | 0.00 | 59 | 1005.4 |
| 20260505011525 | 44 | 35 | 7.8 | 13.9 | 0.00 | 0.00 | 0.00 | 58 | 1005.4 |
| 20260505011023 | 44 | 332 | 8.7 | 14.8 | 0.00 | 0.00 | 0.00 | 57 | 1005.4 |
| 20260505010523 | 45 | 355 | 8.7 | 14.8 | 0.00 | 0.00 | 0.00 | 57 | 1005.4 |
| 20260505010023 | 45 | 336 | 4.3 | 14.8 | 0.00 | 0.00 | 0.00 | 57 | 1005.2 |
| 20260505005523 | 45 | 337 | 6.1 | 14.8 | 0.00 | 0.00 | 0.00 | 58 | 1005.2 |
| 20260505005024 | 45 | 340 | 7.8 | 14.8 | 0.00 | 0.00 | 0.00 | 57 | 1005.1 |
| 20260505004523 | 45 | 355 | 8.7 | 14.8 | 0.00 | 0.00 | 0.00 | 56 | 1005.1 |
| 20260505004021 | 46 | 348 | 6.1 | 18.2 | 0.00 | 0.00 | 0.00 | 55 | 1005.1 |
| 20260505003519 | 46 | 355 | 7.0 | 18.2 | 0.00 | 0.00 | 0.00 | 53 | 1005.0 |
| 20260505003019 | 46 | 337 | 9.6 | 17.4 | 0.00 | 0.00 | 0.00 | 51 | 1005.0 |
| 20260505002519 | 46 | 338 | 10.4 | 17.4 | 0.00 | 0.00 | 0.00 | 48 | 1004.9 |
| 20260505002018 | 46 | 259 | 8.7 | 17.4 | 0.00 | 0.00 | 0.00 | 47 | 1004.8 |
| 20260505001518 | 47 | 355 | 8.7 | 21.7 | 0.00 | 0.00 | 0.00 | 48 | 1004.7 |
| 20260505001017 | 47 | 326 | 13.9 | 21.7 | 0.00 | 0.00 | 0.00 | 47 | 1004.8 |
| 20260505000517 | 47 | 332 | 9.6 | 18.2 | 0.00 | 0.00 | 0.00 | 47 | 1004.7 |
| 20260505000028 | 47 | 309 | 9.6 | 20.9 | 0.00 | 0.00 | 0.00 | 47 | 1004.7 |
| 20260504235517 | 47 | 297 | 12.2 | 20.9 | 0.00 | 0.00 | 0.00 | 46 | 1004.6 |
| 20260504235017 | 47 | 5 | 7.0 | 16.5 | 0.00 | 0.00 | 0.00 | 45 | 1004.6 |
| 20260504234516 | 47 | 323 | 9.6 | 18.2 | 0.00 | 0.00 | 0.00 | 44 | 1004.6 |
| 20260504234017 | 47 | 329 | 9.6 | 20.9 | 0.00 | 0.00 | 0.00 | 44 | 1004.4 |
| 20260504233515 | 47 | 333 | 7.8 | 20.9 | 0.00 | 0.00 | 0.00 | 45 | 1004.5 |
| 20260504233020 | 47 | 346 | 13.0 | 20.9 | 0.00 | 0.00 | 0.00 | 44 | 1004.4 |
| 20260504232515 | 48 | 323 | 10.4 | 20.0 | 0.00 | 0.00 | 0.00 | 44 | 1004.5 |
| 20260504232016 | 48 | 302 | 7.0 | 18.2 | 0.00 | 0.00 | 0.00 | 44 | 1004.4 |
| 20260504231613 | 48 | 306 | 9.6 | 19.1 | 0.00 | 0.00 | 0.00 | 44 | 1004.3 |
| 20260504231014 | 48 | 324 | 9.6 | 23.5 | 0.00 | 0.00 | 0.00 | 44 | 1004.3 |
| 20260504230513 | 48 | 329 | 13.0 | 23.5 | 0.00 | 0.00 | 0.00 | 44 | 1004.1 |
| 20260504230016 | 48 | 310 | 11.3 | 23.5 | 0.00 | 0.00 | 0.00 | 43 | 1004.2 |
| 20260504225512 | 48 | 279 | 12.2 | 21.7 | 0.00 | 0.00 | 0.00 | 44 | 1004.2 |
| 20260504225011 | 48 | 261 | 10.4 | 21.7 | 0.00 | 0.00 | 0.00 | 44 | 1004.2 |
| 20260504224514 | 48 | 275 | 8.7 | 23.5 | 0.00 | 0.00 | 0.00 | 45 | 1004.1 |
| 20260504224014 | 48 | 323 | 9.6 | 23.5 | 0.00 | 0.00 | 0.00 | 45 | 1004.0 |
| 20260504223512 | 48 | 309 | 12.2 | 21.7 | 0.00 | 0.00 | 0.00 | 45 | 1004.0 |
| 20260504223009 | 48 | 338 | 13.0 | 26.9 | 0.00 | 0.00 | 0.00 | 45 | 1003.9 |
| 20260504222510 | 48 | 315 | 13.0 | 26.9 | 0.00 | 0.00 | 0.00 | 46 | 1003.9 |
| 20260504222008 | 48 | 292 | 4.3 | 22.6 | 0.00 | 0.00 | 0.00 | 47 | 1003.8 |
| 20260504221508 | 49 | 344 | 10.4 | 20.9 | 0.00 | 0.00 | 0.00 | 46 | 1003.8 |
| 20260504221008 | 48 | 270 | 9.6 | 20.0 | 0.00 | 0.00 | 0.00 | 47 | 1003.7 |
| 20260504220508 | 49 | 230 | 9.6 | 21.7 | 0.00 | 0.00 | 0.00 | 46 | 1003.7 |
| 20260504220015 | 48 | 265 | 13.0 | 21.7 | 0.00 | 0.00 | 0.00 | 47 | 1003.4 |
| 20260504215507 | 48 | 350 | 11.3 | 21.7 | 0.00 | 0.00 | 0.00 | 48 | 1003.6 |
| 20260504215007 | 48 | 329 | 10.4 | 22.6 | 0.00 | 0.00 | 0.00 | 47 | 1003.6 |
| 20260504214509 | 48 | 325 | 11.3 | 22.6 | 0.00 | 0.00 | 0.00 | 47 | 1003.5 |
| 20260504214010 | 48 | 328 | 11.3 | 20.9 | 0.00 | 0.00 | 0.00 | 48 | 1003.3 |
| 20260504213506 | 49 | 12 | 9.6 | 19.1 | 0.00 | 0.00 | 0.00 | 51 | 1003.4 |
| 20260504213009 | 48 | 319 | 9.6 | 25.2 | 0.00 | 0.00 | 0.00 | 50 | 1003.4 |
| 20260504212508 | 48 | 338 | 5.2 | 18.2 | 0.00 | 0.00 | 0.00 | 52 | 1003.4 |
| 20260504212004 | 48 | 299 | 8.7 | 20.0 | 0.00 | 0.00 | 0.00 | 53 | 1003.4 |
| 20260504211504 | 48 | 321 | 11.3 | 20.0 | 0.00 | 0.00 | 0.00 | 53 | 1003.4 |
| 20260504211004 | 48 | 339 | 10.4 | 18.2 | 0.00 | 0.00 | 0.00 | 52 | 1003.5 |
| 20260504210503 | 48 | 317 | 6.1 | 26.9 | 0.00 | 0.00 | 0.00 | 52 | 1003.3 |
| 20260504210004 | 48 | 306 | 13.0 | 26.9 | 0.00 | 0.00 | 0.00 | 51 | 1003.2 |
| 20260504205503 | 48 | 300 | 8.7 | 19.1 | 0.00 | 0.00 | 0.00 | 52 | 1003.3 |
| 20260504205005 | 48 | 288 | 12.2 | 20.0 | 0.00 | 0.00 | 0.00 | 52 | 1003.3 |
| 20260504204502 | 48 | 344 | 7.8 | 21.7 | 0.00 | 0.00 | 0.00 | 52 | 1003.3 |
| 20260504204002 | 47 | 279 | 9.6 | 21.7 | 0.00 | 0.00 | 0.00 | 51 | 1003.3 |
| 20260504203503 | 48 | 340 | 8.7 | 19.1 | 0.00 | 0.00 | 0.00 | 50 | 1003.3 |
| 20260504203005 | 48 | 355 | 8.7 | 18.2 | 0.00 | 0.00 | 0.00 | 49 | 1003.3 |
| 20260504202504 | 49 | 304 | 7.0 | 17.4 | 0.00 | 0.00 | 0.00 | 49 | 1003.3 |
| 20260504202002 | 48 | 355 | 6.1 | 16.5 | 0.00 | 0.00 | 0.00 | 49 | 1003.3 |
| 20260504201501 | 48 | 265 | 7.8 | 19.1 | 0.00 | 0.00 | 0.00 | 48 | 1003.2 |
| 20260504201003 | 48 | 5 | 10.4 | 20.0 | 0.00 | 0.00 | 0.00 | 48 | 1003.3 |
| 20260504200501 | 48 | 66 | 7.0 | 20.0 | 0.00 | 0.00 | 0.00 | 47 | 1003.1 |
| 20260504195600 | 48 | 325 | 7.0 | 18.2 | 0.00 | 0.00 | 0.00 | 48 | 1003.2 |
| 20260504195502 | 48 | 345 | 7.0 | 18.2 | 0.00 | 0.00 | 0.00 | 47 | 1003.1 |
| 20260504195101 | 48 | 267 | 4.3 | 18.2 | 0.00 | 0.00 | 0.00 | 47 | 1003.2 |
| 20260504194610 | 48 | 320 | 9.6 | 18.2 | 0.00 | 0.00 | 0.00 | 47 | 1003.2 |
| 20260504194100 | 48 | 318 | 8.7 | 15.6 | 0.00 | 0.00 | 0.00 | 50 | 1003.2 |
| 20260504193559 | 47 | 294 | 9.6 | 19.1 | 0.00 | 0.00 | 0.00 | 50 | 1003.3 |
| 20260504193059 | 47 | 310 | 11.3 | 20.9 | 0.00 | 0.00 | 0.00 | 50 | 1003.3 |
| 20260504192600 | 47 | 339 | 7.0 | 20.9 | 0.00 | 0.00 | 0.00 | 51 | 1003.3 |
| 20260504192058 | 47 | 288 | 7.8 | 17.4 | 0.00 | 0.00 | 0.00 | 51 | 1003.3 |
| 20260504191559 | 46 | 310 | 10.4 | 17.4 | 0.00 | 0.00 | 0.00 | 52 | 1003.3 |
| 20260504191057 | 46 | 295 | 7.8 | 18.2 | 0.00 | 0.00 | 0.00 | 53 | 1003.2 |
| 20260504190557 | 46 | 282 | 8.7 | 18.2 | 0.00 | 0.00 | 0.00 | 52 | 1003.3 |
| 20260504190156 | 46 | 256 | 8.7 | 18.2 | 0.00 | 0.00 | 0.00 | 53 | 1003.2 |
| 20260504185556 | 46 | 341 | 9.6 | 20.0 | 0.00 | 0.00 | 0.00 | 53 | 1003.3 |
| 20260504185055 | 46 | 321 | 12.2 | 28.7 | 0.00 | 0.00 | 0.00 | 54 | 1003.2 |
| 20260504184558 | 46 | 323 | 15.6 | 27.8 | 0.00 | 0.00 | 0.00 | 54 | 1003.0 |
| 20260504184058 | 46 | 323 | 10.4 | 21.7 | 0.00 | 0.00 | 0.00 | 55 | 1003.0 |
| 20260504183555 | 46 | 316 | 11.3 | 21.7 | 0.00 | 0.00 | 0.00 | 55 | 1003.0 |
| 20260504183054 | 46 | 283 | 12.2 | 17.4 | 0.00 | 0.00 | 0.00 | 53 | 1003.0 |
| 20260504182553 | 46 | 278 | 5.2 | 20.9 | 0.00 | 0.00 | 0.00 | 53 | 1002.8 |
| 20260504182052 | 46 | 350 | 12.2 | 20.9 | 0.00 | 0.00 | 0.00 | 54 | 1002.8 |
| 20260504181557 | 45 | 311 | 10.4 | 20.0 | 0.00 | 0.00 | 0.00 | 56 | 1002.7 |
| 20260504181052 | 45 | 277 | 7.8 | 19.1 | 0.00 | 0.00 | 0.00 | 57 | 1002.8 |
| 20260504180143 | 45 | 281 | 11.3 | 24.3 | 0.00 | 0.00 | 0.00 | 55 | 1002.6 |
| 20260504175551 | 45 | 298 | 13.0 | 26.9 | 0.00 | 0.00 | 0.00 | 57 | 1002.7 |
| 20260504175059 | 46 | 298 | 10.4 | 26.9 | 0.00 | 0.00 | 0.00 | 59 | 1002.7 |
| 20260504174551 | 45 | 324 | 16.5 | 26.1 | 0.00 | 0.00 | 0.00 | 58 | 1002.4 |
| 20260504174054 | 46 | 284 | 13.0 | 25.2 | 0.00 | 0.00 | 0.00 | 60 | 1002.4 |
| 20260504173549 | 46 | 331 | 13.0 | 24.3 | 0.00 | 0.00 | 0.00 | 59 | 1002.5 |
| 20260504173058 | 46 | 340 | 11.3 | 21.7 | 0.00 | 0.00 | 0.00 | 54 | 1002.3 |
| 20260504172547 | 46 | 323 | 10.4 | 21.7 | 0.00 | 0.00 | 0.00 | 53 | 1002.2 |
| 20260504172047 | 46 | 288 | 9.6 | 19.1 | 0.00 | 0.00 | 0.00 | 54 | 1002.1 |
| 20260504171547 | 46 | 331 | 7.8 | 14.8 | 0.00 | 0.00 | 0.00 | 57 | 1002.1 |
| 20260504171047 | 45 | 51 | 6.1 | 17.4 | 0.00 | 0.00 | 0.00 | 57 | 1002.2 |
| 20260504170550 | 45 | 265 | 5.2 | 20.0 | 0.00 | 0.00 | 0.00 | 57 | 1002.2 |
| 20260504151035 | 46 | 339 | 11.3 | 21.7 | 0.00 | 0.00 | 0.00 | 60 | 1000.5 |
| 20260504150535 | 46 | 328 | 8.7 | 19.1 | 0.00 | 0.00 | 0.00 | 60 | 1000.6 |
| 20260504150135 | 46 | 288 | 12.2 | 20.9 | 0.00 | 0.00 | 0.00 | 60 | 1000.5 |
| 20260504141031 | 45 | 280 | 10.4 | 22.6 | 0.00 | 0.00 | 0.00 | 69 | 1000.1 |
| 20260504140528 | 45 | 304 | 12.2 | 22.6 | 0.00 | 0.00 | 0.00 | 68 | 1000.1 |
| 20260504130519 | 44 | 264 | 8.7 | 18.2 | 0.00 | 0.00 | 0.00 | 71 | 999.3 |
| 20260504110557 | 47 | 257 | 8.7 | 25.2 | 0.00 | 0.00 | 0.00 | 65 | 997.0 |
| 20260504100542 | 50 | 267 | 2.6 | 9.6 | 0.00 | 0.00 | 0.00 | 69 | 995.7 |
| 20260504081530 | 51 | 325 | 7.0 | 16.5 | 0.00 | 0.00 | 0.00 | 66 | 995.4 |
| 20260504081033 | 51 | 347 | 7.0 | 18.2 | 0.00 | 0.00 | 0.00 | 65 | 995.4 |
| 20260504080528 | 51 | 331 | 11.3 | 20.9 | 0.00 | 0.00 | 0.00 | 65 | 995.6 |